User: anonymous
Location: Chenango Forks
(42.2242°N, 75.8278°W)
Time: 05:06:26
(UTC-04:00)
Language:

Coronas F rocket - Orbit

View from above orbital plane
View from above orbital plane
View from above satellite
View from above satellite

Ground track
Ground track

The orbit data is extracted from the following two-line orbital elements,

1 26874U 01032B   14109.52159880  .00021786  00000-0  37152-3 0  6561
2 26874 082.4749 044.7213 0013298 267.4914 092.4815 15.51105783712207
Epoch (UTC): 19 April 2014 12:31:06
Eccentricity: 0.0013298
inclination: 82.4749°
perigee height: 404 km
apogee height: 422 km
right ascension of ascending node: 44.7213°
argument of perigee: 267.4914°
revolutions per day: 15.51105783
mean anomaly at epoch: 92.4815°
orbit number at epoch: 71220

The dashed part of the orbit path shows where the satellite is in the earth's shadow,  

DLR